Location: Asheville, NC
(35.6000°N, 82.5500°W)
Time: 03:53:03
(UTC-04:00)

OTV 5 (USA 277) - Pass Details

Date: 14 October 2017
Orbit: 404 x 417 km, 43.0° (Epoch: 07 September)

Event Time Altitude Azimuth Distance (km) Brightness Sun altitude
Rises 19:31:23 0° 273° (W) 2,346 ? -8.0°
Reaches altitude 10° 19:33:41 10° 286° (WNW) 1,485 ? -8.5°
Maximum altitude 19:36:39 28° 347° (NNW) 810 ? -9.1°
Drops below altitude 10° 19:39:37 10° 49° (NE) 1,487 ? -9.7°
Enters shadow 19:39:45 - 50° (NE) 1,536 ? -9.7°
